NOAA 16 DEB, 41415

Orbit data source: Space-Track

NOAA 16 DEB, 41415 is space debris in SSO originally from a launch on Thu, 21 Sep 2000 UTC launched from the Air Force Western Test Range (AFWTR). Debris objects in space refer to the collection of defunct objects orbiting the Earth. Examples of debris include non-operational satellites, rocket bodies, and fragments generated from explosions, collisions, or faulty payload assembly.

Loading next visibility...
Identifier
41415, 2000-055KU
Orbit
SSO
Country
Flag of USUS
Related business
Manufacturer
Unknown
Mission
Spacecraft
Bus & Motor
Unknown
Mass
Unknown
Launch date (UTC)
2000-09-21 (25 years ago)
Launch vehicle
Unknown
Launch site
Air Force Western Test Range (AFWTR)
Object type
Payload
Rocket body
Debris
Shape & HBR
Unknown shape, 0.1 m
Radar Cross Section
Small (<0.1 m²)

Expand to show TLE details & history
Last TLE update: 16 hours ago

TLE from 16 hours ago
0 NOAA 16 DEB
1 41415U 00055KU  26037.48573106  .00007078  00000-0  25449-2 0  9995
2 41415  98.7233 133.0616 0007190 205.3176 154.7657 14.34067464515140
Epoch: 2026-02-06T11:39Z
TLE epoch observation values (Epoch: 2026-02-06T11:39:27.163Z)
Latitude
-0.00001°
Longitude
-178.4245°
Altitude
785.756 km
Speed
7.458 km/s
True Right ascension
08h 52m 14s
True Declination
0° 00' 00"
Sunlit
Object was in full shadow at epoch
Visualization orbit readout
Latitude
Unknown
Longitude
Unknown
Altitude
Unknown
Speed
Unknown
Apparent Right ascension
Unknown
Apparent Declination
Unknown
Sunlit
N/A
Visualization observer readout
Local Sidereal Time
06:17:37
Azimuth
Unknown
Elevation
Unknown
Doppler factor
Unknown
Orbital elements
Apogee altitude
780.451 km
Perigee altitude
770.164 km
Semi-major axis
7,153.445 km
Eccentricity
0.00072
Inclination
98.7233°
RAAN
133.0616°
Arg. of periapsis
205.3176°
True anomaly
154.8008°
Mean anomaly
154.7657°
Eccentric anomaly
154.78325°
Mean motion
3.58732 °/min
Orbital period
100.35 mins
BSTAR
0.0025449
Loading maneuver chart data...
Computing Atmospheric mass density...
Loading historical data...
Loading historical data...
Loading historical data...
Loading historical data...
Loading historical data...
Loading historical data...
Loading historical data...

Documentation

Showing up to 5 results
|